Lid_Strength_Index
-1 -0 0 0 0 0 2 6 12 6 5 12 13 16 15 12 12 9 11 11 12 13 12 12 12 12 10 8 8 11 10 12 14 12 10 8 10 11 12 15 16 15 16 15
-1 -1 -1 -1 -1 -0 2 6 7 5 6 13 15 14 14 13 13 11 12 12 11 11 12 14 12 11 9 8 8 10 10 13 16 15 13 11 12 11 11 12 13 16 17 15
-1 -1 -1 -1 -1 -1 1 8 10 7 6 7 12 14 14 15 12 12 11 12 11 12 12 12 13 11 9 9 8 6 7 13 13 14 14 12 14 12 11 12 16 15 15 13
-1 -1 -1 -1 -1 -1 2 7 9 7 11 10 11 12 13 14 15 12 11 12 12 13 14 14 14 12 11 9 6 8 10 13 12 12 11 10 10 11 12 12 12 14 12 13
-1 -1 -1 -1 -1 -1 3 8 8 6 9 8 9 9 12 13 13 14 13 13 12 12 14 13 14 12 12 12 11 11 10 13 12 13 11 11 11 10 11 11 11 12 11 12
-1 -1 -1 -1 -1 -0 4 5 4 6 9 9 10 10 10 10 11 11 11 11 12 13 12 11 11 11 11 11 12 13 11 12 14 15 12 12 14 11 11 11 11 10 13 10
-1 -1 -1 -1 -1 -0 3 3 4 8 11 10 10 9 8 9 9 12 9 10 12 10 8 9 10 12 11 11 12 12 11 12 13 17 15 19 12 9 9 10 10 9 9 9
-1 -1 -0 -0 -1 -1 2 1 4 7 11 9 9 9 9 8 7 9 9 8 7 8 9 12 14 13 13 12 10 9 9 12 16 17 18 14 13 11 11 11 11 8 9 9
-1 -1 -1 -1 -1 -1 1 1 1 4 9 10 7 9 8 10 11 10 9 7 6 8 10 12 16 16 14 14 13 10 10 10 13 17 19 20 13 9 8 8 14 8 8 9
-1 -0 -1 -0 -1 -1 0 2 2 5 8 6 6 9 9 8 9 10 9 9 9 7 11 18 18 16 11 15 16 15 14 14 15 17 18 14 10 8 7 15 13 8 7 7
-0 -1 -1 -0 -1 -1 0 2 1 4 6 6 5 5 7 7 8 11 8 9 9 10 12 13 13 14 12 13 12 14 15 16 16 16 17 18 8 9 12 9 8 7 7 7
-0 -1 -1 -1 -1 -1 -0 3 0 0 5 6 5 4 4 5 5 7 8 9 9 8 11 11 11 13 12 12 14 11 14 12 14 13 13 9 7 8 7 7 7 7 7 7
-1 -0 -0 -1 -1 -1 0 2 2 2 5 8 8 7 5 4 4 4 9 7 6 7 6 9 11 13 11 15 11 12 11 9 11 11 10 9 7 7 7 7 6 6 6 5
-1 -0 -0 -1 -1 -1 -0 3 2 2 6 10 9 4 6 4 4 4 5 5 6 6 6 9 10 12 9 12 11 11 9 9 11 11 10 9 8 6 7 6 6 6 5 5
-1 -1 -1 -1 -0 0 1 1 2 3 7 11 9 7 6 4 5 5 5 6 7 8 9 10 11 9 10 10 10 12 9 10 11 11 9 9 8 6 6 6 6 5 5 5
-0 -0 -1 -0 -0 0 3 8 5 4 4 9 14 8 7 4 6 5 5 6 6 6 8 9 8 7 9 12 13 9 8 7 8 9 7 8 7 5 5 6 5 5 5 5
0 0 0 0 0 2 5 6 3 2 4 7 9 11 5 4 5 6 6 4 6 6 7 9 9 9 8 11 13 9 8 7 6 6 6 8 6 7 5 5 4 4 4 4
0 -0 0 -0 1 3 5 2 0 2 4 5 10 10 8 4 7 8 5 7 6 7 8 8 9 8 9 13 9 8 7 6 6 6 6 6 5 5 5 5 5 5 6 5
0 -0 1 3 5 7 5 0 1 3 5 9 9 11 12 5 7 6 7 6 10 7 10 10 9 10 13 10 9 8 8 7 7 6 6 6 6 6 6 6 6 6 6 5
1 4 6 9 5 1 1 6 8 9 9 6 9 7 10 7 8 9 9 8 10 12 10 8 11 12 8 8 8 8 8 7 6 7 8 7 7 7 8 7 6 5 5 5
6 8 9 6 2 5 6 9 11 11 11 8 7 7 10 6 10 10 8 11 10 14 11 12 12 13 9 8 8 6 6 6 6 6 7 7 7 7 7 7 6 5 4 5
4 4 3 4 5 8 9 13 11 11 12 8 9 8 7 7 6 9 9 11 11 15 9 12 14 11 8 7 6 6 6 6 7 7 7 6 6 6 6 7 6 5 5 5
3 4 6 10 10 11 12 13 12 11 9 9 8 9 7 7 7 9 10 12 13 9 13 14 12 8 7 7 6 6 6 6 7 7 7 6 7 7 7 7 7 6 6 5
7 8 12 11 12 10 10 10 10 7 9 8 8 9 9 9 10 10 13 11 11 14 15 15 10 8 7 7 6 7 7 7 6 6 6 6 6 7 6 6 5 5 5 4
7 9 12 10 8 7 7 7 8 7 8 9 9 10 9 11 11 10 11 13 15 14 14 11 8 8 7 7 6 6 5 6 6 6 6 5 6 6 6 6 6 6 5 4
8 9 9 8 8 9 8 7 8 8 8 9 9 11 12 12 11 12 13 14 15 12 10 8 7 7 7 6 5 5 5 6 6 7 7 7 6 7 6 7 7 6 6 4
10 10 8 9 8 8 8 8 8 7 9 12 10 12 12 10 12 13 12 13 11 9 8 6 6 6 7 6 5 6 6 6 6 6 6 7 7 8 8 8 8 8 7 6